This is the latest recevied weather packets stored in our database for station/object KC9DRE. If no packets are shown the sender has not sent any weather packets the latest 10 day(s).
| Time | Temp. | Humidity | Pressure | Rain* | Wind** | Luminosity | Snow |
|---|---|---|---|---|---|---|---|
| 1788038826 | 32.22° C | 47% | 1019.7 hPa | 0 mm | - | 187 W/m² | - |
| 1788038520 | 32.78° C | 47% | 1019.7 hPa | 0 mm | - | 222 W/m² | - |
| 1788038219 | 32.78° C | 45% | 1019.6 hPa | 0 mm | - | 319 W/m² | - |
| 1788037914 | 32.78° C | 42% | 1019.5 hPa | 0 mm | - | 396 W/m² | - |
| 1788037609 | 32.78° C | 42% | 1019.7 hPa | 0 mm | - | 424 W/m² | - |
| 1788037304 | 32.22° C | 44% | 1019.7 hPa | 0 mm | - | 478 W/m² | - |
| 1788037003 | 32.22° C | 46% | 1019.7 hPa | 0 mm | - | 457 W/m² | - |
| 1788036700 | 32.22° C | 47% | 1019.9 hPa | 0 mm | - | 405 W/m² | - |
| 1788036397 | 31.67° C | 52% | 1020 hPa | 0 mm | - | 270 W/m² | - |
| 1788036096 | 31.67° C | 52% | 1019.9 hPa | 0 mm | - | 226 W/m² | - |
| 1788035796 | 31.67° C | 57% | 1020.1 hPa | 0 mm | - | 290 W/m² | - |
| 1788035492 | 31.11° C | 60% | 1020.1 hPa | 0 mm | - | 413 W/m² | - |
| 1788035186 | 30.56° C | 53% | 1020.2 hPa | 0 mm | - | 222 W/m² | - |
| 1788034883 | 30° C | 56% | 1020.2 hPa | 0 mm | - | 471 W/m² | - |
| 1788034578 | 29.44° C | 61% | 1020.3 hPa | 0 mm | - | 400 W/m² | - |
| 1788034274 | 29.44° C | 63% | 1020.2 hPa | 0 mm | - | 188 W/m² | - |
| 1788033974 | 30° C | 62% | 1020.3 hPa | 0 mm | - | 212 W/m² | - |
| 1788033669 | 30° C | 54% | 1020.2 hPa | 0 mm | - | 175 W/m² | - |
| 1788033368 | 30° C | 61% | 1020.5 hPa | 0 mm | - | 205 W/m² | - |
| 1788033064 | 30° C | 59% | 1020.5 hPa | 0 mm | - | 215 W/m² | - |
| 1788032763 | 30.56° C | 49% | 1020.6 hPa | 0 mm | - | 174 W/m² | - |
| 1788032458 | 30° C | 47% | 1020.6 hPa | 0 mm | - | 183 W/m² | - |
| 1788032154 | 30.56° C | 49% | 1020.7 hPa | 0 mm | - | 698 W/m² | - |
| 1788031851 | 30.56° C | 53% | 1020.6 hPa | 0 mm | - | 252 W/m² | - |
| 1788031550 | 30.56° C | 50% | 1020.7 hPa | 0 mm | - | 331 W/m² | - |
* Rain latest hour (hover to see other rain measurements)
** Current wind speed in m/s (hover to see current wind gust speed)